This is the latest recevied weather packets stored in our database for station/object KG5WBN. If no packets are shown the sender has not sent any weather packets the latest 10 day(s).
| Time | Temp. | Humidity | Pressure | Rain* | Wind** | Luminosity | Snow |
|---|---|---|---|---|---|---|---|
| 1778164815 | 22.78° C | 99% | 1013.5 hPa | 0 mm | - | 53 W/m² | - |
| 1778164511 | 22.78° C | 99% | 1013.5 hPa | 0 mm | - | 43 W/m² | - |
| 1778164209 | 23.33° C | 99% | 1013.5 hPa | 0 mm | - | 41 W/m² | - |
| 1778163904 | 23.33° C | 99% | 1013.5 hPa | 0 mm | - | 56 W/m² | - |
| 1778163601 | 23.33° C | 99% | 1013.5 hPa | 0 mm | - | 79 W/m² | - |
| 1778163297 | 23.33° C | 99% | 1013.5 hPa | 0 mm | - | 55 W/m² | - |
| 1778162994 | 23.33° C | 99% | 1013.5 hPa | 0 mm | - | 54 W/m² | - |
| 1778162690 | 23.33° C | 99% | 1013.2 hPa | 1.78 mm | - | 38 W/m² | - |
| 1778162388 | 23.89° C | 99% | 1013.5 hPa | 0 mm | - | 37 W/m² | - |
| 1778162085 | 23.89° C | 99% | 1013.2 hPa | 1.27 mm | - | 29 W/m² | - |
| 1778161782 | 24.44° C | 99% | 1013.2 hPa | 1.27 mm | - | 29 W/m² | - |
| 1778161479 | 25° C | 99% | 1013.2 hPa | 0 mm | - | 10 W/m² | - |
| 1778161175 | 25.56° C | 99% | 1012.9 hPa | 0 mm | - | 23 W/m² | - |
| 1778160871 | 25.56° C | 99% | 1012.9 hPa | 0 mm | - | 34 W/m² | - |
| 1778160570 | 25.56° C | 99% | 1012.9 hPa | 0 mm | - | 26 W/m² | - |
| 1778160265 | 25.56° C | 99% | 1012.9 hPa | 0 mm | - | 25 W/m² | - |
| 1778159962 | 25.56° C | 99% | 1012.9 hPa | 0 mm | - | 20 W/m² | - |
| 1778159659 | 25.56° C | 99% | 1012.9 hPa | 0 mm | - | 19 W/m² | - |
| 1778159356 | 25° C | 99% | 1012.9 hPa | 0 mm | - | 18 W/m² | - |
| 1778159053 | 25° C | 99% | 1012.9 hPa | 0 mm | - | 16 W/m² | - |
| 1778158752 | 25° C | 99% | 1012.9 hPa | 0 mm | - | 18 W/m² | - |
| 1778158449 | 25° C | 99% | 1012.9 hPa | 0 mm | - | 19 W/m² | - |
| 1778158146 | 25° C | 99% | 1012.5 hPa | 0 mm | - | 21 W/m² | - |
| 1778157842 | 25° C | 99% | 1012.5 hPa | 0 mm | - | 13 W/m² | - |
| 1778157541 | 25° C | 99% | 1012.5 hPa | 0 mm | - | 13 W/m² | - |
* Rain latest hour (hover to see other rain measurements)
** Current wind speed in m/s (hover to see current wind gust speed)